| time (UTC) | temp C | wind direction | speed KPH | gust KPH | rain 1hr cm | rain 24hr cm | rain mn cm | humidity % | barometer mb |
| 20260505111556 | 13 | 194 | 0.0 | 3.2 | 0.00 | 0.00 | 0.23 | 99 | 1009.0 |
| 20260505111056 | 13 | 184 | 0.0 | 1.6 | 0.10 | 0.00 | 0.23 | 99 | 1008.0 |
| 20260505110556 | 13 | 144 | 0.0 | 3.2 | 0.03 | 0.00 | 0.20 | 99 | 1008.0 |
| 20260505102056 | 13 | 0 | 0.0 | 0.0 | 0.00 | 0.00 | 0.20 | 99 | 1009.0 |
| 20260505101556 | 13 | 139 | 1.6 | 1.6 | 0.00 | 0.00 | 0.20 | 99 | 1009.0 |
| 20260505101056 | 13 | 145 | 0.0 | 3.2 | 0.00 | 0.00 | 0.20 | 100 | 1009.0 |
| 20260505100556 | 13 | 0 | 0.0 | 0.0 | 0.03 | 0.00 | 0.18 | 100 | 1009.0 |
| 20260505100056 | 13 | 264 | 0.0 | 1.6 | 0.03 | 0.00 | 0.18 | 99 | 1010.0 |
| 20260505095557 | 13 | 269 | 1.6 | 3.2 | 0.05 | 0.00 | 0.18 | 99 | 1010.0 |
| 20260505095059 | 14 | 274 | 0.0 | 1.6 | 0.13 | 0.00 | 0.18 | 99 | 1010.0 |
| 20260505094557 | 14 | 257 | 1.6 | 4.8 | 0.23 | 0.00 | 0.18 | 98 | 1010.0 |
| 20260505094056 | 14 | 268 | 1.6 | 4.8 | 0.41 | 0.00 | 0.13 | 98 | 1010.0 |
| 20260505093556 | 14 | 245 | 3.2 | 4.8 | 0.71 | 0.00 | 0.08 | 96 | 1010.0 |
| 20260505093058 | 15 | 260 | 3.2 | 4.8 | 0.20 | 0.00 | 0.05 | 95 | 1010.0 |
| 20260505092558 | 15 | 259 | 3.2 | 4.8 | 0.10 | 0.00 | 0.03 | 93 | 1010.0 |
| 20260505092058 | 15 | 262 | 1.6 | 4.8 | 0.05 | 0.00 | 0.03 | 91 | 1010.0 |
| 20260505091556 | 15 | 275 | 4.8 | 11.3 | 0.08 | 0.00 | 0.00 | 88 | 1010.0 |
| 20260505091058 | 16 | 252 | 4.8 | 8.0 | 0.08 | 0.00 | 0.00 | 84 | 1009.0 |
| 20260505090557 | 16 | 276 | 4.8 | 9.7 | 0.03 | 0.00 | 0.00 | 80 | 1009.0 |
| 20260505090056 | 16 | 304 | 1.6 | 6.4 | 0.00 | 0.00 | 0.00 | 79 | 1009.0 |
| 20260505085556 | 16 | 273 | 1.6 | 6.4 | 0.00 | 0.00 | 0.00 | 78 | 1008.0 |
| 20260505085057 | 16 | 238 | 0.0 | 3.2 | 0.00 | 0.00 | 0.00 | 78 | 1008.0 |
| 20260505084556 | 16 | 346 | 0.0 | 1.6 | 0.00 | 0.00 | 0.00 | 80 | 1008.0 |
| 20260505084057 | 16 | 356 | 0.0 | 1.6 | 0.00 | 0.00 | 0.00 | 78 | 1008.0 |
| 20260505083556 | 16 | 0 | 0.0 | 3.2 | 0.00 | 0.00 | 0.00 | 77 | 1008.0 |
| 20260505083056 | 16 | 144 | 0.0 | 0.0 | 0.00 | 0.00 | 0.00 | 77 | 1008.0 |
| 20260505082556 | 16 | 0 | 0.0 | 0.0 | 0.00 | 0.00 | 0.00 | 78 | 1008.0 |
| 20260505082101 | 16 | 0 | 0.0 | 0.0 | 0.00 | 0.00 | 0.00 | 78 | 1008.0 |
| 20260505081557 | 16 | 316 | 0.0 | 3.2 | 0.00 | 0.00 | 0.00 | 76 | 1007.0 |
| 20260505081058 | 16 | 97 | 0.0 | 1.6 | 0.00 | 0.00 | 0.00 | 77 | 1007.0 |
| 20260505080556 | 16 | 75 | 0.0 | 0.0 | 0.00 | 0.00 | 0.00 | 77 | 1007.0 |
| 20260505080056 | 16 | 181 | 0.0 | 1.6 | 0.00 | 0.00 | 0.00 | 76 | 1007.0 |
| 20260505075556 | 16 | 97 | 0.0 | 1.6 | 0.00 | 0.00 | 0.00 | 76 | 1007.0 |
| 20260505075058 | 16 | 106 | 1.6 | 3.2 | 0.00 | 0.00 | 0.00 | 77 | 1007.0 |
| 20260505074556 | 16 | 126 | 0.0 | 1.6 | 0.00 | 0.00 | 0.00 | 76 | 1007.0 |
| 20260505074057 | 16 | 136 | 0.0 | 1.6 | 0.00 | 0.00 | 0.00 | 76 | 1007.0 |
| 20260505073556 | 16 | 158 | 0.0 | 0.0 | 0.00 | 0.00 | 0.00 | 74 | 1007.0 |
| 20260505073057 | 16 | 0 | 0.0 | 0.0 | 0.00 | 0.00 | 0.00 | 74 | 1007.0 |
| 20260505072556 | 16 | 0 | 0.0 | 0.0 | 0.00 | 0.00 | 0.00 | 74 | 1007.0 |
| 20260505072058 | 16 | 356 | 0.0 | 3.2 | 0.00 | 0.00 | 0.00 | 73 | 1007.0 |
| 20260505071556 | 16 | 320 | 0.0 | 1.6 | 0.00 | 0.00 | 0.00 | 72 | 1007.0 |
| 20260505071056 | 17 | 303 | 0.0 | 0.0 | 0.00 | 0.00 | 0.00 | 72 | 1007.0 |
| 20260505070556 | 17 | 0 | 0.0 | 0.0 | 0.00 | 0.00 | 0.00 | 71 | 1007.0 |
| 20260505070057 | 17 | 219 | 0.0 | 1.6 | 0.00 | 0.00 | 0.00 | 70 | 1007.0 |
| 20260505065556 | 17 | 159 | 1.6 | 3.2 | 0.00 | 0.00 | 0.00 | 69 | 1007.0 |
| 20260505065056 | 17 | 219 | 0.0 | 3.2 | 0.00 | 0.00 | 0.00 | 69 | 1007.0 |
| 20260505064557 | 17 | 163 | 0.0 | 1.6 | 0.00 | 0.00 | 0.00 | 69 | 1007.0 |
| 20260505064056 | 17 | 169 | 0.0 | 1.6 | 0.00 | 0.00 | 0.00 | 69 | 1007.0 |
| 20260505063556 | 17 | 175 | 0.0 | 3.2 | 0.00 | 0.00 | 0.00 | 69 | 1007.0 |
| 20260505063056 | 17 | 182 | 1.6 | 3.2 | 0.00 | 0.00 | 0.00 | 69 | 1007.0 |
| 20260505062556 | 17 | 198 | 0.0 | 1.6 | 0.00 | 0.00 | 0.00 | 69 | 1007.0 |
| 20260505062056 | 17 | 191 | 0.0 | 1.6 | 0.00 | 0.00 | 0.00 | 69 | 1007.0 |
| 20260505061557 | 17 | 136 | 0.0 | 3.2 | 0.00 | 0.00 | 0.00 | 68 | 1007.0 |
| 20260505061056 | 17 | 195 | 1.6 | 4.8 | 0.00 | 0.00 | 0.00 | 68 | 1007.0 |
| 20260505060556 | 17 | 157 | 1.6 | 4.8 | 0.00 | 0.00 | 0.00 | 68 | 1007.0 |
| 20260505060056 | 17 | 171 | 1.6 | 4.8 | 0.00 | 0.00 | 0.00 | 69 | 1007.0 |
| 20260505055557 | 17 | 184 | 1.6 | 4.8 | 0.00 | 0.00 | 0.00 | 67 | 1007.0 |
| 20260505055056 | 17 | 207 | 1.6 | 3.2 | 0.00 | 0.00 | 0.00 | 68 | 1006.0 |
| 20260505054556 | 17 | 178 | 3.2 | 6.4 | 0.00 | 0.00 | 0.00 | 67 | 1006.0 |
| 20260505054056 | 17 | 158 | 1.6 | 3.2 | 0.00 | 0.00 | 0.00 | 67 | 1006.0 |
| 20260505053556 | 18 | 167 | 0.0 | 3.2 | 0.00 | 0.00 | 0.00 | 68 | 1006.0 |
| 20260505053057 | 18 | 213 | 1.6 | 3.2 | 0.00 | 0.00 | 0.00 | 67 | 1006.0 |
| 20260505052556 | 18 | 189 | 3.2 | 4.8 | 0.00 | 0.00 | 0.00 | 66 | 1006.0 |
| 20260505052057 | 18 | 204 | 1.6 | 3.2 | 0.00 | 0.00 | 0.00 | 66 | 1006.0 |
| 20260505051556 | 18 | 155 | 1.6 | 4.8 | 0.00 | 0.00 | 0.00 | 66 | 1006.0 |
| 20260505051057 | 18 | 187 | 1.6 | 3.2 | 0.00 | 0.00 | 0.00 | 66 | 1006.0 |
| 20260505050556 | 18 | 173 | 1.6 | 3.2 | 0.00 | 0.00 | 0.00 | 66 | 1006.0 |
| 20260505041557 | 18 | 160 | 1.6 | 3.2 | 0.00 | 0.00 | 0.00 | 66 | 1007.0 |
| 20260505041056 | 18 | 192 | 1.6 | 3.2 | 0.00 | 0.00 | 0.00 | 66 | 1007.0 |
| 20260505040556 | 18 | 173 | 1.6 | 4.8 | 0.00 | 0.00 | 0.00 | 66 | 1007.0 |
| 20260505040056 | 18 | 161 | 1.6 | 4.8 | 0.00 | 0.00 | 0.00 | 66 | 1007.0 |
| 20260505035556 | 18 | 157 | 1.6 | 3.2 | 0.00 | 0.00 | 0.03 | 66 | 1007.0 |
| 20260505035056 | 18 | 167 | 1.6 | 4.8 | 0.00 | 0.00 | 0.03 | 65 | 1007.0 |
| 20260505034556 | 18 | 170 | 3.2 | 4.8 | 0.00 | 0.00 | 0.03 | 65 | 1007.0 |
| 20260505034056 | 18 | 189 | 3.2 | 4.8 | 0.00 | 0.00 | 0.03 | 65 | 1007.0 |
| 20260505033556 | 19 | 160 | 1.6 | 6.4 | 0.00 | 0.00 | 0.03 | 65 | 1007.0 |
| 20260505033056 | 19 | 165 | 0.0 | 3.2 | 0.00 | 0.00 | 0.03 | 65 | 1007.0 |
| 20260505032556 | 19 | 171 | 1.6 | 3.2 | 0.00 | 0.00 | 0.03 | 65 | 1007.0 |
| 20260505032056 | 19 | 163 | 1.6 | 4.8 | 0.00 | 0.00 | 0.03 | 65 | 1007.0 |
| 20260505031556 | 19 | 185 | 0.0 | 3.2 | 0.00 | 0.00 | 0.03 | 64 | 1007.0 |
| 20260505031056 | 19 | 169 | 0.0 | 3.2 | 0.00 | 0.00 | 0.03 | 64 | 1007.0 |
| 20260505030556 | 19 | 187 | 0.0 | 3.2 | 0.00 | 0.00 | 0.03 | 64 | 1007.0 |
| 20260505030058 | 19 | 164 | 1.6 | 3.2 | 0.00 | 0.00 | 0.03 | 64 | 1007.0 |
| 20260505025558 | 19 | 151 | 1.6 | 3.2 | 0.00 | 0.00 | 0.03 | 64 | 1007.0 |
| 20260505025059 | 19 | 182 | 1.6 | 3.2 | 0.00 | 0.00 | 0.03 | 64 | 1007.0 |
| 20260505024558 | 19 | 139 | 1.6 | 4.8 | 0.00 | 0.00 | 0.03 | 64 | 1006.0 |
| 20260505024058 | 19 | 166 | 1.6 | 4.8 | 0.00 | 0.00 | 0.03 | 64 | 1006.0 |
| 20260505023556 | 19 | 178 | 1.6 | 3.2 | 0.00 | 0.00 | 0.03 | 63 | 1006.0 |
| 20260505023058 | 20 | 150 | 0.0 | 3.2 | 0.00 | 0.00 | 0.03 | 63 | 1006.0 |
| 20260505022558 | 20 | 186 | 1.6 | 3.2 | 0.00 | 0.00 | 0.03 | 62 | 1006.0 |
| 20260505022059 | 20 | 174 | 0.0 | 1.6 | 0.00 | 0.00 | 0.03 | 61 | 1006.0 |
| 20260505021556 | 20 | 192 | 0.0 | 3.2 | 0.00 | 0.00 | 0.03 | 61 | 1006.0 |
| 20260505021058 | 20 | 167 | 1.6 | 3.2 | 0.00 | 0.00 | 0.03 | 62 | 1006.0 |
| 20260505020556 | 20 | 176 | 0.0 | 3.2 | 0.00 | 0.00 | 0.03 | 62 | 1006.0 |
| 20260505020056 | 20 | 177 | 0.0 | 1.6 | 0.00 | 0.00 | 0.03 | 61 | 1006.0 |
| 20260505015556 | 20 | 208 | 0.0 | 1.6 | 0.00 | 0.00 | 0.03 | 60 | 1006.0 |
| 20260505015056 | 20 | 194 | 3.2 | 4.8 | 0.00 | 0.00 | 0.03 | 60 | 1006.0 |
| 20260505014556 | 20 | 145 | 0.0 | 1.6 | 0.00 | 0.00 | 0.03 | 60 | 1005.0 |
| 20260505014057 | 20 | 171 | 1.6 | 4.8 | 0.00 | 0.00 | 0.03 | 60 | 1005.0 |
| 20260505013556 | 20 | 135 | 1.6 | 3.2 | 0.00 | 0.00 | 0.03 | 60 | 1005.0 |
| 20260505013056 | 20 | 182 | 1.6 | 3.2 | 0.00 | 0.00 | 0.03 | 59 | 1005.0 |
| 20260505012557 | 20 | 173 | 0.0 | 3.2 | 0.00 | 0.00 | 0.03 | 60 | 1005.0 |
| 20260505012056 | 20 | 162 | 0.0 | 3.2 | 0.00 | 0.00 | 0.03 | 60 | 1005.0 |
| 20260505011556 | 21 | 189 | 1.6 | 1.6 | 0.00 | 0.00 | 0.03 | 59 | 1005.0 |
| 20260505011057 | 21 | 171 | 0.0 | 1.6 | 0.00 | 0.00 | 0.03 | 59 | 1005.0 |
| 20260505010557 | 21 | 133 | 0.0 | 1.6 | 0.00 | 0.00 | 0.03 | 59 | 1005.0 |
| 20260505010059 | 21 | 199 | 0.0 | 3.2 | 0.00 | 0.00 | 0.03 | 58 | 1005.0 |
| 20260505005558 | 21 | 151 | 1.6 | 3.2 | 0.00 | 0.00 | 0.03 | 58 | 1005.0 |
| 20260505005105 | 21 | 180 | 3.2 | 4.8 | 0.00 | 0.00 | 0.03 | 58 | 1005.0 |
| 20260505004556 | 21 | 166 | 1.6 | 4.8 | 0.00 | 0.00 | 0.03 | 59 | 1005.0 |
| 20260505004056 | 21 | 175 | 0.0 | 1.6 | 0.00 | 0.00 | 0.03 | 59 | 1005.0 |
| 20260505003556 | 22 | 172 | 3.2 | 4.8 | 0.00 | 0.00 | 0.03 | 58 | 1005.0 |
| 20260505003056 | 22 | 156 | 1.6 | 3.2 | 0.00 | 0.00 | 0.03 | 58 | 1005.0 |
| 20260505002556 | 22 | 155 | 1.6 | 3.2 | 0.00 | 0.00 | 0.03 | 57 | 1005.0 |
| 20260505002106 | 22 | 215 | 1.6 | 4.8 | 0.00 | 0.00 | 0.03 | 57 | 1005.0 |
| 20260505001557 | 22 | 188 | 1.6 | 4.8 | 0.00 | 0.00 | 0.03 | 57 | 1005.0 |
| 20260505001056 | 22 | 151 | 1.6 | 3.2 | 0.00 | 0.00 | 0.03 | 58 | 1005.0 |
| 20260505000556 | 22 | 210 | 1.6 | 3.2 | 0.00 | 0.00 | 0.03 | 56 | 1005.0 |
| 20260505000057 | 22 | 184 | 3.2 | 6.4 | 0.00 | 0.00 | 0.03 | 56 | 1005.0 |
| 20260504235556 | 22 | 201 | 3.2 | 4.8 | 0.00 | 0.00 | 0.03 | 56 | 1006.0 |
| 20260504235056 | 22 | 157 | 1.6 | 4.8 | 0.00 | 0.00 | 0.03 | 55 | 1006.0 |
| 20260504234558 | 22 | 164 | 1.6 | 3.2 | 0.00 | 0.00 | 0.03 | 55 | 1006.0 |
| 20260504234056 | 23 | 200 | 1.6 | 6.4 | 0.00 | 0.00 | 0.03 | 54 | 1006.0 |
| 20260504233556 | 23 | 183 | 1.6 | 3.2 | 0.00 | 0.00 | 0.03 | 53 | 1006.0 |
| 20260504233056 | 23 | 191 | 1.6 | 3.2 | 0.00 | 0.00 | 0.03 | 53 | 1006.0 |
| 20260504232557 | 23 | 151 | 1.6 | 4.8 | 0.00 | 0.00 | 0.03 | 52 | 1006.0 |
| 20260504232056 | 23 | 173 | 1.6 | 3.2 | 0.00 | 0.00 | 0.03 | 52 | 1006.0 |
| 20260504231556 | 23 | 181 | 1.6 | 3.2 | 0.00 | 0.00 | 0.03 | 52 | 1006.0 |
| 20260504231057 | 23 | 184 | 1.6 | 4.8 | 0.00 | 0.00 | 0.03 | 52 | 1006.0 |
| 20260504230557 | 23 | 140 | 1.6 | 4.8 | 0.00 | 0.00 | 0.03 | 50 | 1006.0 |
| 20260504230056 | 23 | 196 | 1.6 | 4.8 | 0.00 | 0.00 | 0.03 | 50 | 1006.0 |
| 20260504225556 | 24 | 160 | 3.2 | 6.4 | 0.00 | 0.00 | 0.03 | 50 | 1006.0 |
| 20260504225057 | 24 | 187 | 4.8 | 9.7 | 0.00 | 0.00 | 0.03 | 48 | 1006.0 |
| 20260504224557 | 24 | 152 | 3.2 | 6.4 | 0.00 | 0.00 | 0.03 | 48 | 1006.0 |
| 20260504224056 | 24 | 135 | 3.2 | 6.4 | 0.00 | 0.00 | 0.03 | 48 | 1006.0 |
| 20260504223557 | 24 | 164 | 1.6 | 3.2 | 0.00 | 0.00 | 0.03 | 49 | 1006.0 |
| 20260504223056 | 25 | 222 | 3.2 | 6.4 | 0.00 | 0.00 | 0.03 | 47 | 1006.0 |
| 20260504222556 | 24 | 161 | 0.0 | 4.8 | 0.00 | 0.00 | 0.03 | 49 | 1007.0 |
| 20260504222056 | 24 | 214 | 4.8 | 9.7 | 0.00 | 0.00 | 0.03 | 46 | 1006.0 |
| 20260504221556 | 24 | 134 | 3.2 | 4.8 | 0.00 | 0.00 | 0.03 | 46 | 1007.0 |
| 20260504221057 | 24 | 138 | 1.6 | 3.2 | 0.00 | 0.00 | 0.03 | 52 | 1007.0 |
| 20260504220556 | 24 | 144 | 1.6 | 3.2 | 0.00 | 0.00 | 0.03 | 55 | 1007.0 |
| 20260504220056 | 24 | 139 | 1.6 | 3.2 | 0.00 | 0.00 | 0.03 | 54 | 1007.0 |
| 20260504215556 | 24 | 141 | 1.6 | 3.2 | 0.00 | 0.00 | 0.03 | 53 | 1007.0 |
| 20260504215056 | 24 | 144 | 1.6 | 3.2 | 0.00 | 0.00 | 0.03 | 56 | 1006.0 |
| 20260504214556 | 24 | 156 | 3.2 | 3.2 | 0.00 | 0.00 | 0.03 | 57 | 1006.0 |
| 20260504214056 | 24 | 164 | 3.2 | 3.2 | 0.00 | 0.00 | 0.03 | 57 | 1006.0 |
| 20260504213557 | 24 | 160 | 3.2 | 3.2 | 0.00 | 0.00 | 0.03 | 57 | 1007.0 |
| 20260504213056 | 24 | 154 | 3.2 | 3.2 | 0.00 | 0.00 | 0.03 | 55 | 1007.0 |
| 20260504212556 | 24 | 153 | 3.2 | 3.2 | 0.00 | 0.00 | 0.03 | 55 | 1007.0 |
| 20260504212056 | 24 | 142 | 1.6 | 3.2 | 0.00 | 0.00 | 0.03 | 53 | 1007.0 |
| 20260504211556 | 24 | 0 | 0.0 | 0.0 | 0.00 | 0.00 | 0.03 | 53 | 1007.0 |
| 20260504211058 | 25 | 277 | 1.6 | 4.8 | 0.00 | 0.00 | 0.03 | 50 | 1007.0 |
| 20260504210556 | 24 | 256 | 1.6 | 4.8 | 0.00 | 0.00 | 0.03 | 52 | 1007.0 |
| 20260504210057 | 24 | 195 | 1.6 | 3.2 | 0.00 | 0.00 | 0.03 | 52 | 1007.0 |
| 20260504205557 | 24 | 160 | 1.6 | 3.2 | 0.00 | 0.00 | 0.03 | 52 | 1007.0 |
| 20260504205056 | 25 | 212 | 1.6 | 3.2 | 0.00 | 0.00 | 0.03 | 52 | 1007.0 |
| 20260504204556 | 25 | 301 | 4.8 | 14.5 | 0.00 | 0.00 | 0.03 | 49 | 1007.0 |
| 20260504204056 | 24 | 229 | 0.0 | 3.2 | 0.00 | 0.00 | 0.03 | 51 | 1008.0 |
| 20260504203557 | 24 | 275 | 3.2 | 8.0 | 0.00 | 0.00 | 0.03 | 50 | 1008.0 |
| 20260504203056 | 23 | 178 | 1.6 | 3.2 | 0.00 | 0.00 | 0.03 | 52 | 1008.0 |
| 20260504202557 | 23 | 190 | 3.2 | 6.4 | 0.00 | 0.00 | 0.03 | 52 | 1008.0 |
| 20260504202056 | 23 | 213 | 1.6 | 3.2 | 0.00 | 0.00 | 0.03 | 52 | 1008.0 |
| 20260504201557 | 23 | 268 | 3.2 | 9.7 | 0.00 | 0.00 | 0.03 | 52 | 1008.0 |
| 20260504201057 | 23 | 202 | 3.2 | 4.8 | 0.00 | 0.00 | 0.03 | 53 | 1008.0 |
| 20260504200557 | 23 | 243 | 3.2 | 9.7 | 0.00 | 0.00 | 0.03 | 55 | 1008.0 |
| 20260504200057 | 23 | 142 | 3.2 | 6.4 | 0.00 | 0.00 | 0.03 | 55 | 1008.0 |
| 20260504195556 | 23 | 187 | 1.6 | 4.8 | 0.00 | 0.00 | 0.03 | 57 | 1008.0 |
| 20260504195056 | 23 | 271 | 1.6 | 4.8 | 0.00 | 0.00 | 0.03 | 55 | 1008.0 |
| 20260504194558 | 23 | 178 | 1.6 | 3.2 | 0.00 | 0.00 | 0.03 | 54 | 1008.0 |
| 20260504194056 | 23 | 158 | 1.6 | 4.8 | 0.00 | 0.00 | 0.03 | 56 | 1008.0 |
| 20260504193556 | 23 | 172 | 3.2 | 4.8 | 0.00 | 0.00 | 0.03 | 56 | 1008.0 |
| 20260504193057 | 23 | 161 | 1.6 | 6.4 | 0.00 | 0.00 | 0.03 | 56 | 1008.0 |
| 20260504192557 | 23 | 141 | 3.2 | 6.4 | 0.00 | 0.00 | 0.03 | 56 | 1008.0 |
| 20260504192057 | 22 | 171 | 4.8 | 8.0 | 0.00 | 0.00 | 0.03 | 57 | 1008.0 |
| 20260504191556 | 22 | 161 | 3.2 | 6.4 | 0.00 | 0.00 | 0.03 | 57 | 1009.0 |
| 20260504191056 | 22 | 184 | 1.6 | 4.8 | 0.00 | 0.00 | 0.03 | 61 | 1009.0 |
| 20260504190557 | 22 | 235 | 3.2 | 3.2 | 0.00 | 0.00 | 0.03 | 63 | 1009.0 |
| 20260504190056 | 21 | 284 | 3.2 | 8.0 | 0.00 | 0.00 | 0.03 | 61 | 1009.0 |
| 20260504185557 | 21 | 226 | 1.6 | 3.2 | 0.00 | 0.00 | 0.03 | 65 | 1009.0 |
| 20260504185057 | 21 | 143 | 0.0 | 4.8 | 0.00 | 0.00 | 0.03 | 63 | 1009.0 |
| 20260504184557 | 21 | 278 | 3.2 | 8.0 | 0.00 | 0.00 | 0.03 | 62 | 1009.0 |
| 20260504184058 | 20 | 283 | 1.6 | 8.0 | 0.00 | 0.00 | 0.03 | 63 | 1009.0 |
| 20260504183556 | 20 | 149 | 3.2 | 6.4 | 0.00 | 0.00 | 0.03 | 65 | 1009.0 |
| 20260504183057 | 20 | 300 | 0.0 | 1.6 | 0.00 | 0.00 | 0.03 | 64 | 1009.0 |
| 20260504182557 | 20 | 312 | 1.6 | 3.2 | 0.00 | 0.00 | 0.03 | 63 | 1009.0 |
| 20260504182056 | 20 | 185 | 1.6 | 3.2 | 0.00 | 0.00 | 0.03 | 62 | 1009.0 |
| 20260504181557 | 21 | 256 | 1.6 | 6.4 | 0.00 | 0.00 | 0.03 | 63 | 1009.0 |
| 20260504181057 | 21 | 189 | 3.2 | 4.8 | 0.00 | 0.00 | 0.03 | 61 | 1009.0 |
| 20260504180556 | 21 | 148 | 1.6 | 3.2 | 0.00 | 0.00 | 0.03 | 62 | 1009.0 |
| 20260504180056 | 21 | 161 | 3.2 | 6.4 | 0.00 | 0.00 | 0.03 | 62 | 1009.0 |
| 20260504175556 | 21 | 145 | 1.6 | 4.8 | 0.00 | 0.00 | 0.03 | 63 | 1009.0 |
| 20260504175056 | 21 | 263 | 1.6 | 4.8 | 0.00 | 0.00 | 0.03 | 63 | 1009.0 |
| 20260504174557 | 21 | 195 | 1.6 | 6.4 | 0.00 | 0.00 | 0.03 | 61 | 1009.0 |
| 20260504174058 | 21 | 168 | 1.6 | 6.4 | 0.00 | 0.00 | 0.03 | 60 | 1009.0 |
| 20260504173556 | 21 | 162 | 3.2 | 6.4 | 0.00 | 0.00 | 0.03 | 59 | 1009.0 |
| 20260504173056 | 22 | 188 | 1.6 | 3.2 | 0.00 | 0.00 | 0.03 | 59 | 1009.0 |
| 20260504172557 | 22 | 185 | 3.2 | 4.8 | 0.00 | 0.00 | 0.03 | 60 | 1008.0 |
| 20260504172058 | 22 | 156 | 3.2 | 4.8 | 0.00 | 0.00 | 0.03 | 56 | 1008.0 |
| 20260504171558 | 22 | 228 | 3.2 | 6.4 | 0.00 | 0.00 | 0.03 | 57 | 1008.0 |
| 20260504171056 | 22 | 197 | 4.8 | 6.4 | 0.00 | 0.00 | 0.03 | 58 | 1008.0 |
| 20260504170557 | 22 | 169 | 1.6 | 3.2 | 0.00 | 0.00 | 0.03 | 58 | 1009.0 |
| 20260504150956 | 19 | 218 | 1.6 | 3.2 | 0.00 | 0.00 | 0.03 | 65 | 1009.0 |
| 20260504150457 | 18 | 160 | 1.6 | 6.4 | 0.00 | 0.00 | 0.03 | 66 | 1009.0 |
| 20260504140958 | 16 | 222 | 1.6 | 3.2 | 0.00 | 0.00 | 0.03 | 71 | 1009.0 |
| 20260504140458 | 15 | 187 | 0.0 | 1.6 | 0.00 | 0.00 | 0.00 | 73 | 1009.0 |
| 20260504130359 | 12 | 173 | 1.6 | 3.2 | 0.00 | 0.00 | 0.00 | 76 | 1009.0 |